Starlink 33939

operational
NORAD ID: 63702 Int'l Des: 2025-087 Owner: SPXS Country: US Constellation: starlink
LEOCIRCULAR

Starlink 33939について

説明を読み込み中...

リアルタイム位置

3D地球を読み込み中...

次回通過

高度履歴

Altitude vs Time

uPlot chart will show altitude changes over time

軌道要素

1 63702U 25087F 25305.12118106 .00024579 00000-0 83929-3 0 9996
2 63702 53.1571 96.8564 0001266 86.6546 273.4600 15.30197669 29516
Epoch: Nov 1, 2025 • Age: 36 hours

現在のステータス

高度 492.0 km
速度 7.62 km/s
衛星直下点 -47.29°S, 133.9°E
打ち上げ日 Apr 28, 2025
運用期間 0.5 years
タイプ internet

技術仕様

分類 Payload
質量 575.00 kg
乾燥質量 530.00 kg
総質量 575.00 kg
長さ 0.30 m
直径 4.10 m
スパン 29.00 m
形状 Box + pan
製造者 SPXS
バスタイプ Starlink V2MO
フェーズステータス In Orbit
所有者/国 SPXS/US

大規模コンステレーション

Loading constellations...